This is the latest recevied weather packets stored in our database for station/object SQ7IQO. If no packets are shown the sender has not sent any weather packets the latest 10 day(s).
| Time | Temp. | Humidity | Pressure | Rain* | Wind** | Luminosity | Snow |
|---|---|---|---|---|---|---|---|
| 1787816859 | 22.22° C | 53% | 1024.6 hPa | 0 mm | 0.89 m/s, ° | - | - |
| 1787816799 | 22.78° C | 53% | 1024.6 hPa | 0 mm | 0 m/s | - | - |
| 1787816739 | 22.78° C | 52% | 1024.6 hPa | 0 mm | 0 m/s | - | - |
| 1787816679 | 22.78° C | 53% | 1024.6 hPa | 0 mm | 0 m/s | - | - |
| 1787816619 | 22.78° C | 53% | 1024.6 hPa | 0 mm | 0 m/s | - | - |
| 1787816559 | 22.78° C | 53% | 1024.7 hPa | 0 mm | 0 m/s | - | - |
| 1787816499 | 22.22° C | 54% | 1024.6 hPa | 0 mm | 0 m/s | - | - |
| 1787816439 | 21.67° C | 56% | 1012.2 hPa | 0 mm | 0 m/s | - | - |
| 1787816379 | 21.67° C | 53% | 1024.7 hPa | 0 mm | 0 m/s | - | - |
| 1787816319 | 22.22° C | 54% | 1024.7 hPa | 0 mm | 0 m/s | - | - |
| 1787816259 | 22.22° C | 57% | 1024.7 hPa | 0 mm | 0.45 m/s, ° | - | - |
| 1787816199 | 22.78° C | 54% | 1024.7 hPa | 0 mm | 0 m/s | - | - |
| 1787816139 | 22.78° C | 53% | 1024.7 hPa | 0 mm | 0 m/s | - | - |
| 1787816079 | 22.22° C | 56% | 1024.8 hPa | 0 mm | 0 m/s | - | - |
| 1787816019 | 21.67° C | 56% | 1024.7 hPa | 0 mm | 0 m/s | - | - |
| 1787815959 | 21.67° C | 58% | 9622.3 hPa | 0 mm | 0 m/s | - | - |
| 1787815899 | 22.22° C | 56% | 1024.7 hPa | 0 mm | 0 m/s | - | - |
| 1787815839 | 22.78° C | 53% | 1055.6 hPa | 0 mm | 0 m/s | - | - |
| 1787815779 | 23.33° C | 53% | 1024.7 hPa | 0 mm | 0 m/s | - | - |
| 1787815719 | 23.33° C | 53% | 1024.6 hPa | 0 mm | 0 m/s | - | - |
| 1787815660 | 23.33° C | 51% | 1024.7 hPa | 0 mm | 0 m/s | - | - |
| 1787815599 | 23.33° C | 53% | 1024.7 hPa | 0 mm | 0 m/s | - | - |
| 1787815539 | 22.78° C | 52% | 1024.6 hPa | 0 mm | 0 m/s | - | - |
| 1787815479 | 22.78° C | 52% | 1024.3 hPa | 0 mm | 0 m/s | - | - |
| 1787815419 | 22.22° C | 53% | - | 0 mm | 0 m/s | - | - |
* Rain latest hour (hover to see other rain measurements)
** Current wind speed in m/s (hover to see current wind gust speed)